This is the latest recevied weather packets stored in our database for station/object HB9HFD-13. If no packets are shown the sender has not sent any weather packets the latest 10 day(s).
| Time | Temp. | Humidity | Pressure | Rain* | Wind** | Luminosity | Snow |
|---|---|---|---|---|---|---|---|
| 1787575859 | 27.22° C | 44% | 1012.8 hPa | 0 mm | - | - | - |
| 1787575559 | 27.22° C | 43% | 1013 hPa | 0 mm | - | - | - |
| 1787575258 | 27.22° C | 44% | 1013.1 hPa | 0 mm | - | - | - |
| 1787574737 | 27.22° C | 45% | 1013.3 hPa | 0 mm | - | - | - |
| 1787574437 | 26.67° C | 44% | 1013.4 hPa | 0 mm | - | - | - |
| 1787574137 | 26.67° C | 48% | 1013.4 hPa | 0 mm | - | - | - |
| 1787573837 | 26.11° C | 45% | 1013.4 hPa | 0 mm | - | - | - |
| 1787573536 | 26.11° C | 46% | 1013.5 hPa | 0 mm | - | - | - |
| 1787573236 | 26.11° C | 46% | 1013.6 hPa | 0 mm | - | - | - |
| 1787572936 | 26.11° C | 46% | 1013.7 hPa | 0 mm | - | - | - |
| 1787572636 | 26.11° C | 47% | 1013.9 hPa | 0 mm | - | - | - |
| 1787572335 | 25.56° C | 46% | 1013.8 hPa | 0 mm | - | - | - |
| 1787572035 | 25.56° C | 46% | 1013.8 hPa | 0 mm | - | - | - |
| 1787571735 | 25.56° C | 47% | 1013.9 hPa | 0 mm | - | - | - |
| 1787571435 | 25.56° C | 49% | 1014 hPa | 0 mm | - | - | - |
| 1787571134 | 25.56° C | 49% | 1014.1 hPa | 0 mm | - | - | - |
| 1787570834 | 25° C | 50% | 1014.2 hPa | 0 mm | - | - | - |
| 1787570534 | 25° C | 49% | 1014.4 hPa | 0 mm | - | - | - |
| 1787570233 | 25° C | 51% | 1014.4 hPa | 0 mm | - | - | - |
| 1787569933 | 25° C | 51% | 1014.4 hPa | 0 mm | - | - | - |
| 1787569633 | 25° C | 50% | 1014.6 hPa | 0 mm | - | - | - |
| 1787569333 | 25° C | 51% | 1014.6 hPa | 0 mm | - | - | - |
| 1787569032 | 25° C | 50% | 1014.7 hPa | 0 mm | - | - | - |
| 1787568732 | 24.44° C | 54% | 1014.7 hPa | 0 mm | - | - | - |
| 1787568432 | 23.89° C | 55% | 1014.8 hPa | 0 mm | - | - | - |
* Rain latest hour (hover to see other rain measurements)
** Current wind speed in m/s (hover to see current wind gust speed)